Douglas, WY

8:47 PM MST on December 12, 2017 (GMT -0700)
Converse County

Weather History for KDGW - April, 2013

Change the Weather History Date:

Monday, April 29, 2013

  Actual Average Record
Temperature  
Mean Temperature 56 °F 47 °F  
Max Temperature 74 °F 62 °F 81 °F (2007)
Min Temperature 38 °F 33 °F 15 °F (2005)
Degree Days  
Heating Degree Days 9 18  
Month to date heating degree days 795 622  
Since 1 July heating degree days 6739 6940  
Cooling Degree Days 0 0  
Month to date cooling degree days 0 0  
Year to date cooling degree days 0 0  
Growing Degree Days 6 (Base 50)    
Moisture  
Dew Point 29 °F    
Average Humidity 50    
Maximum Humidity 85    
Minimum Humidity 14    
Precipitation  
Precipitation 0.00 in 0.06 in 0.94 in (1967)
Month to date precipitation 0.47 1.44  
Year to date precipitation 1.44 3.08  
Sea Level Pressure  
Sea Level Pressure 29.59 in    
Wind  
Wind Speed 20 mph (West)    
Max Wind Speed 39 mph    
Max Gust Speed 52 mph    
Visibility 10 miles    
Events      
T = Trace of Precipitation, MM = Missing Value Source: NWS Daily Summary

Daily Weather History Graph

Daily Weather History Graph

Search for Another Location

Airport or City:

Trip Planner

Search our weather history database for the weather conditions in past years. The results will help you decide how hot, cold, wet, or windy it might be!

Date:

Astronomy

Apr. 29, 2013 Rise Set
Actual Time 5:58 AM MDT 8:00 PM MDT
Civil Twilight 5:27 AM MDT 8:31 PM MDT
Nautical Twilight 4:49 AM MDT 9:08 PM MDT
Astronomical Twilight 4:08 AM MDT 9:50 PM MDT
Moon No Moon Rise 9:19 AM MDT (4/29)
Length of Visible Light 15h 03m
Length of Day
14h 02m
Waning Gibbous, 79% of the Moon is Illuminated
Apr 29
Waning Gibbous
May 2
Last Quarter
May 9
New
May 17
First Quarter
May 24
Full

Hourly Weather History & Observations

Time (MDT) Temp. Windchill Dew Point Humidity Pressure Visibility Wind Dir Wind Speed Gust Speed Precip Events Conditions
12:53 AM 39.0 °F 35.7 °F 35.1 °F 86% 29.86 in 10.0 mi SE 4.6 mph - N/A   Clear
1:53 AM 43.0 °F 38.2 °F 37.0 °F 80% 29.81 in 10.0 mi East 8.1 mph - N/A   Mostly Cloudy
2:53 AM 46.0 °F 39.0 °F 35.1 °F 66% 29.77 in 10.0 mi SSE 17.3 mph 21.9 mph N/A   Mostly Cloudy
3:53 AM 41.0 °F 34.7 °F 35.1 °F 79% 29.77 in 10.0 mi ESE 10.4 mph - N/A   Partly Cloudy
4:53 AM 41.0 °F 34.3 °F 34.0 °F 76% 29.74 in 10.0 mi ESE 11.5 mph - N/A   Clear
5:53 AM 39.0 °F 32.3 °F 34.0 °F 82% 29.74 in 10.0 mi ESE 10.4 mph - N/A   Clear
6:53 AM 42.1 °F 37.7 °F 36.0 °F 79% 29.71 in 10.0 mi SSE 6.9 mph - N/A   Clear
7:53 AM 46.9 °F - 37.0 °F 68% 29.69 in 10.0 mi SSE 4.6 mph - N/A   Clear
8:53 AM 54.0 °F - 30.9 °F 41% 29.67 in 10.0 mi NW 5.8 mph - N/A   Clear
9:53 AM 64.0 °F - 21.0 °F 19% 29.61 in 10.0 mi West 19.6 mph 28.8 mph N/A   Clear
10:53 AM 66.0 °F - 19.0 °F 17% 29.59 in 10.0 mi West 19.6 mph 27.6 mph N/A   Clear
11:53 AM 69.1 °F - 21.0 °F 16% 29.57 in 10.0 mi West 25.3 mph 31.1 mph N/A   Clear
12:53 PM 72.0 °F - 21.0 °F 15% 29.55 in 10.0 mi WSW 25.3 mph 33.4 mph N/A   Clear
1:53 PM 73.0 °F - 21.9 °F 15% 29.49 in 10.0 mi West 27.6 mph 41.4 mph N/A   Clear
2:53 PM 71.1 °F - 23.0 °F 16% 29.45 in 10.0 mi West 28.8 mph 36.8 mph N/A   Clear
3:53 PM 72.0 °F - 23.0 °F 16% 29.44 in 10.0 mi West 26.5 mph 34.5 mph N/A   Clear
4:53 PM 70.0 °F - 23.0 °F 17% 29.42 in 10.0 mi West 31.1 mph 47.2 mph N/A   Clear
5:53 PM 69.1 °F - 21.9 °F 17% 29.42 in 10.0 mi West 35.7 mph 44.9 mph N/A   Clear
6:53 PM 68.0 °F - 24.1 °F 19% 29.42 in 10.0 mi West 25.3 mph 35.7 mph N/A   Clear
7:53 PM 64.9 °F - 24.1 °F 21% 29.42 in 10.0 mi West 24.2 mph 35.7 mph N/A   Clear
8:53 PM 64.0 °F - 25.0 °F 23% 29.43 in 10.0 mi West 33.4 mph 40.3 mph N/A   Clear
9:53 PM 61.0 °F - 26.1 °F 26% 29.46 in 10.0 mi WNW 18.4 mph - N/A   Clear
10:14 PM 48.2 °F - 35.6 °F 62% 29.63 in 10.0 mi North 26.5 mph 33.4 mph N/A   Clear
10:53 PM 44.1 °F 35.2 °F 36.0 °F 73% 29.56 in 10.0 mi North 23.0 mph 35.7 mph N/A   Partly Cloudy
11:53 PM 43.0 °F 34.8 °F 35.1 °F 74% 29.60 in 10.0 mi North 18.4 mph 27.6 mph N/A   Clear